Location: Byhalia Creek
(34.8270°N, 89.8040°W)
Time: 16:49:39
(UTC+00:00)

Cosmos 1151 Rocket - Pass Details

Date: 22 April 2026
Orbit: 585 x 605 km, 82.5° (Epoch: 9 May)

Event Time Altitude Azimuth Distance (km) Brightness Sun altitude
Exits shadow 10:07:43 12° 195° (SSW) 1,745 5.0 -14.4°
Maximum altitude 10:11:29 66° 277° (W) 639 2.9 -13.7°
Drops below altitude 10° 10:15:41 10° 1° (N) 1,913 5.9 -13.0°
Sets 10:17:55 0° 4° (N) 2,820 6.9 -12.5°
